Denver Centennial, CO

6:31 AM MDT on October 24, 2017 (GMT -0600)
Centennial

Weather History for KAPA - December, 2012

Change the Weather History Date:

Saturday, December 22, 2012

  Actual Average Record
Temperature  
Mean Temperature 36 °F -  
Max Temperature 49 °F 40 °F 60 °F (2005)
Min Temperature 23 °F 17 °F -11 °F (1998)
Degree Days  
Heating Degree Days 29    
Month to date heating degree days 659  
Moisture  
Dew Point 9 °F    
Average Humidity 37    
Maximum Humidity 50    
Minimum Humidity 24    
Precipitation  
Precipitation 0.00 in - - ()
Month to date precipitation 0.08  
Year to date precipitation 13.72  
Sea Level Pressure  
Sea Level Pressure 30.03 in    
Wind  
Wind Speed 5 mph (SSE)    
Max Wind Speed 14 mph    
Max Gust Speed 17 mph    
Visibility 10 miles    
Events      
Averages and records for this station are not official NWS values.
T = Trace of Precipitation, MM = Missing Value Source: NWS Daily Summary

Daily Weather History Graph

Daily Weather History Graph

Search for Another Location

Airport or City:

Trip Planner

Search our weather history database for the weather conditions in past years. The results will help you decide how hot, cold, wet, or windy it might be!

Date:

Astronomy

Dec. 22, 2012 Rise Set
Actual Time 7:17 AM MST 4:39 PM MST
Civil Twilight 6:46 AM MST 5:09 PM MST
Nautical Twilight 6:12 AM MST 5:43 PM MST
Astronomical Twilight 5:40 AM MST 6:16 PM MST
Moon 12:57 PM MST (12/22) 2:05 AM MST (12/22)
Length of Visible Light 10h 23m
Length of Day
9h 22m
Waxing Gibbous, 74% of the Moon is Illuminated
Dec 22
Waxing Gibbous
Dec 28
Full
Jan 4
Last Quarter
Jan 11
New
Jan 18
First Quarter

Hourly Weather History & Observations

Time (MST) Temp. Windchill Dew Point Humidity Pressure Visibility Wind Dir Wind Speed Gust Speed Precip Events Conditions
12:53 AM 30.9 °F - 6.1 °F 35% 30.07 in 10.0 mi Calm Calm - N/A   Clear
1:53 AM 35.1 °F 27.4 °F 5.0 °F 28% 30.05 in 10.0 mi SW 10.4 mph - N/A   Partly Cloudy
2:53 AM 30.0 °F 24.1 °F 3.0 °F 32% 30.06 in 10.0 mi South 5.8 mph - N/A   Partly Cloudy
3:53 AM 30.9 °F 25.2 °F 3.9 °F 32% 30.04 in 10.0 mi SSW 5.8 mph - N/A   Clear
4:53 AM 28.0 °F - 3.0 °F 34% 30.07 in 10.0 mi Calm Calm - N/A   Partly Cloudy
5:53 AM 28.0 °F 21.7 °F 3.0 °F 34% 30.08 in 10.0 mi SE 5.8 mph - N/A   Partly Cloudy
6:53 AM 28.9 °F 21.9 °F 3.0 °F 33% 30.07 in 10.0 mi SSE 6.9 mph - N/A   Partly Cloudy
7:53 AM 27.0 °F 23.0 °F 3.9 °F 37% 30.11 in 10.0 mi SE 3.5 mph - N/A   Partly Cloudy
8:53 AM 35.1 °F 30.1 °F 7.0 °F 31% 30.11 in 10.0 mi SE 5.8 mph - N/A   Partly Cloudy
9:53 AM 37.9 °F 32.7 °F 12.0 °F 35% 30.09 in 10.0 mi SE 6.9 mph - N/A   Mostly Cloudy
10:53 AM 41.0 °F - 16.0 °F 36% 30.09 in 10.0 mi Calm Calm - N/A   Mostly Cloudy
11:53 AM 43.0 °F - 10.0 °F 26% 30.06 in 10.0 mi Calm Calm - N/A   Mostly Cloudy
12:53 PM 46.0 °F - 16.0 °F 30% 30.00 in 10.0 mi Calm Calm - N/A   Mostly Cloudy
1:53 PM 48.0 °F - 14.0 °F 26% 29.96 in 10.0 mi East 4.6 mph - N/A   Mostly Cloudy
2:53 PM 45.0 °F 41.2 °F 19.0 °F 36% 29.98 in 10.0 mi ESE 6.9 mph - N/A   Mostly Cloudy
3:53 PM 44.1 °F 40.8 °F 18.0 °F 35% 29.99 in 10.0 mi SSE 5.8 mph - N/A   Mostly Cloudy
4:53 PM 41.0 °F 34.7 °F 12.9 °F 32% 30.01 in 10.0 mi SSE 10.4 mph - N/A   Scattered Clouds
5:53 PM 33.1 °F 26.9 °F 15.1 °F 48% 30.04 in 10.0 mi South 6.9 mph - N/A   Scattered Clouds
6:53 PM 32.0 °F 24.8 °F 12.9 °F 45% 30.02 in 10.0 mi SSW 8.1 mph - N/A   Scattered Clouds
7:53 PM 32.0 °F 24.8 °F 10.0 °F 40% 30.03 in 10.0 mi South 8.1 mph - N/A   Scattered Clouds
8:53 PM 35.1 °F 29.3 °F 8.1 °F 33% 29.99 in 10.0 mi SE 6.9 mph - N/A   Clear
9:53 PM 33.1 °F 24.9 °F 8.1 °F 35% 29.97 in 10.0 mi SSE 10.4 mph - N/A   Clear
10:53 PM 27.0 °F 18.7 °F 7.0 °F 43% 29.96 in 10.0 mi SSE 8.1 mph - N/A   Clear
11:53 PM 35.1 °F 31.0 °F -0.0 °F 23% 29.90 in 10.0 mi WSW 4.6 mph - N/A   Clear